Wind_Speed
16 14 13 13 11 10 9 9 9 9 13 16 17 16 15 15 15 16 16 16 16 15 13 12 9 6 7 9 13 16 18 19 19 18 17 15 14 14 13 10 10 10 8 7
15 13 14 14 12 11 10 9 9 10 14 17 17 16 15 15 15 15 14 13 14 15 13 11 8 5 6 7 11 15 17 18 18 17 17 16 15 14 13 11 11 10 9 7
14 15 17 16 14 11 10 10 10 12 15 17 19 18 16 14 14 14 12 11 11 12 12 9 7 3 5 7 10 13 15 17 17 17 17 15 14 14 13 12 11 11 9 8
15 17 19 18 15 12 11 11 12 15 17 18 19 20 17 15 13 11 10 10 10 9 10 8 5 2 3 6 10 12 13 15 16 17 17 16 14 14 14 13 13 12 10 9
15 18 20 19 15 12 12 12 14 16 17 18 19 20 18 15 12 9 8 8 8 8 8 8 6 3 2 6 9 10 13 13 15 16 16 16 16 16 15 14 13 12 11 10
16 19 20 19 16 14 14 15 17 18 18 19 19 19 17 15 10 8 6 6 7 7 7 7 6 4 3 5 7 9 12 13 13 14 16 17 17 16 16 15 14 12 11 10
16 18 19 19 17 16 16 16 18 19 18 19 19 18 14 12 8 6 6 5 5 6 7 6 4 3 3 5 7 9 11 12 12 13 15 16 16 16 15 15 14 13 11 10
15 16 18 19 17 15 16 17 18 19 19 18 18 16 13 10 7 5 5 4 3 4 5 5 3 2 2 4 7 9 11 12 13 13 14 15 15 15 15 15 14 13 12 11
16 15 17 19 18 17 18 19 19 20 20 19 17 15 11 9 7 4 3 2 3 3 4 4 2 2 2 4 7 9 10 11 12 14 14 14 15 15 15 15 14 13 13 12
19 18 20 20 20 19 19 19 19 20 21 20 18 15 12 10 5 4 4 2 1 1 2 2 1 1 2 3 6 8 10 11 12 13 14 14 15 15 15 15 14 14 13 13
23 22 21 23 22 21 20 20 20 21 20 21 20 16 13 10 7 5 3 1 1 1 1 1 1 1 2 3 4 7 8 9 10 12 14 14 15 15 15 15 15 15 15 14
27 26 25 25 24 23 22 22 22 22 21 20 20 19 14 12 9 7 5 4 3 2 2 2 3 3 3 3 4 5 7 8 9 11 12 14 15 16 16 15 15 16 16 16
31 31 29 27 27 26 25 23 23 23 22 20 20 19 15 13 10 9 8 7 5 4 4 4 4 5 5 5 5 6 8 9 10 11 12 14 15 15 16 17 17 17 17 17
34 35 34 31 28 28 28 26 24 24 23 21 19 18 17 14 12 10 9 9 6 4 5 5 6 6 7 7 7 7 8 10 12 13 13 14 14 15 16 18 18 19 19 19
37 36 36 34 31 29 29 29 27 26 25 23 21 20 19 17 15 13 11 9 7 6 7 7 7 8 9 9 9 9 9 11 12 13 14 14 15 16 16 18 19 20 21 22
38 37 36 35 32 32 30 29 28 27 26 26 23 21 20 19 16 13 12 11 10 9 9 9 8 9 10 10 10 11 11 12 13 14 14 15 16 17 18 19 21 22 23 24
38 39 38 37 34 33 32 30 29 28 28 27 25 22 21 19 18 15 13 12 11 10 10 11 11 12 12 12 13 14 14 14 15 16 17 17 19 20 20 22 24 24 25 26
35 37 38 37 36 35 31 31 31 30 29 28 26 23 22 20 19 17 15 13 13 12 12 12 12 14 15 15 15 16 17 17 18 19 19 20 21 23 24 25 26 27 27 28
30 34 37 37 36 35 32 31 31 30 28 26 25 24 22 20 19 17 15 14 14 14 14 14 15 15 16 17 18 18 19 19 20 21 21 22 23 25 26 27 28 29 29 29
27 29 33 34 34 34 31 30 30 29 29 27 26 24 22 22 20 18 17 16 15 15 16 16 16 16 16 18 19 20 20 21 21 22 24 25 26 28 29 29 29 28 28 30
24 26 29 31 32 32 29 28 29 30 27 26 26 25 25 23 21 20 18 17 17 17 17 17 18 18 19 20 21 22 22 23 23 24 26 28 29 29 30 30 30 29 30 31
20 22 24 27 29 30 30 28 27 27 27 26 26 25 23 23 21 21 20 19 18 19 19 20 21 21 22 22 23 24 24 25 26 27 28 29 30 30 30 32 32 33 32 33
16 18 20 24 26 26 25 25 25 25 26 25 26 25 25 24 23 22 21 20 19 19 20 21 22 22 22 23 25 26 27 28 29 29 30 31 32 33 33 34 34 34 34 33
14 16 17 21 23 23 23 24 24 24 26 26 26 25 23 22 22 21 21 20 20 19 20 22 23 24 24 25 27 28 29 30 31 32 32 32 33 33 34 35 35 36 36 36
11 13 15 17 18 18 19 20 22 23 24 24 24 23 21 21 21 22 22 22 21 21 21 22 23 24 26 27 28 28 29 30 32 33 33 34 35 35 35 35 36 37 38 38
11 12 13 13 15 17 18 18 19 20 19 17 17 19 19 19 19 20 20 21 21 22 23 23 24 24 25 26 28 29 30 31 32 33 34 34 35 36 37 38 38 38 39 40
Wind_Direction
253 250 244 244 239 238 249 270 292 309 308 309 311 314 315 319 327 329 325 329 334 333 332 328 321 291 251 235 216 205 202 201 204 205 208 211 212 213 213 212 205 202 198 191
247 241 232 230 229 236 253 273 289 297 299 303 306 309 311 319 320 321 321 326 334 335 335 332 327 292 244 220 205 203 197 196 202 204 201 202 202 202 202 196 195 196 192 187
238 228 227 223 223 236 253 269 283 289 291 294 300 302 303 305 314 320 324 330 337 341 338 335 333 285 226 211 197 193 198 198 199 200 198 196 197 198 195 194 194 193 189 188
231 229 229 225 226 239 249 266 276 282 286 291 296 299 300 299 302 314 325 335 338 345 350 348 350 331 215 194 185 192 201 195 197 198 193 191 193 193 194 194 191 188 187 188
231 228 229 228 228 233 245 261 268 276 281 286 294 298 298 300 301 308 325 340 346 355 4 9 10 35 141 173 184 193 196 192 194 194 196 196 194 191 190 189 187 189 192 193
232 231 234 234 231 231 242 255 266 274 279 286 293 298 303 300 300 302 320 341 1 5 10 13 22 58 125 154 170 182 184 185 187 190 193 191 188 188 189 189 191 194 196 197
235 235 239 237 232 231 241 255 266 269 274 285 293 298 304 300 296 304 319 340 2 16 15 12 24 71 132 160 165 168 173 183 185 185 185 183 185 188 192 193 195 198 201 206
238 233 235 235 233 237 242 252 264 274 277 285 292 302 306 302 291 299 315 326 344 14 20 16 29 96 153 156 163 168 174 181 184 185 185 187 188 191 194 198 201 205 211 217
246 230 225 227 230 238 244 248 259 269 274 283 291 299 310 309 293 295 309 330 341 10 20 14 30 76 133 161 173 179 179 181 183 187 187 190 191 195 200 206 212 214 218 224
252 239 224 225 229 235 249 252 255 262 269 280 289 296 303 317 306 299 318 312 332 341 6 15 13 86 145 167 177 184 188 189 192 194 194 196 199 203 209 213 215 220 225 230
246 245 233 230 233 237 240 247 253 259 264 275 282 290 291 298 311 305 311 341 320 295 308 333 320 256 197 193 200 204 199 202 203 203 204 207 210 214 217 221 223 228 233 237
241 245 240 235 236 239 243 248 254 259 263 272 280 285 282 288 295 302 301 302 296 273 258 281 276 253 227 217 214 214 216 217 213 211 213 217 221 224 225 229 232 233 237 243
240 244 245 239 235 239 243 248 254 257 260 266 273 282 281 285 287 295 297 298 295 274 252 255 255 246 236 234 234 229 225 225 223 223 225 225 227 229 233 237 237 240 244 250
240 241 243 244 240 240 245 249 255 255 257 262 268 275 279 280 282 286 287 290 283 264 259 250 249 248 243 243 245 240 234 232 231 231 233 233 232 234 237 242 244 247 251 255
241 242 243 245 242 242 245 248 252 253 257 260 263 269 272 276 277 278 278 283 273 266 263 256 252 253 250 247 247 245 241 239 239 239 242 244 243 244 247 250 253 255 257 259
240 243 243 244 243 242 243 247 251 255 258 259 261 264 266 266 268 269 271 271 270 272 270 260 257 255 255 253 251 250 249 247 246 248 251 254 255 255 256 257 260 260 262 264
241 242 243 243 242 242 241 244 248 251 253 256 258 261 262 259 264 262 265 267 269 271 272 267 268 262 257 253 253 253 255 253 254 255 256 258 259 260 262 262 265 266 268 270
240 240 241 241 240 241 240 241 245 248 250 253 254 256 256 256 262 259 259 262 265 264 267 269 264 262 260 255 254 256 257 259 261 262 261 262 263 262 264 266 268 267 268 271
241 239 239 240 239 241 238 239 243 248 249 250 252 253 252 253 260 264 262 262 265 266 265 268 264 263 259 254 255 259 262 263 265 267 266 266 266 267 268 270 271 269 270 272
242 238 238 238 237 237 236 239 244 246 246 248 249 252 253 256 258 258 258 258 262 266 268 266 262 263 263 259 260 264 265 267 268 269 269 270 271 271 271 275 274 275 275 277
239 238 237 236 238 237 236 238 243 244 245 245 248 252 254 250 251 253 255 255 259 264 266 265 263 263 265 265 267 268 268 269 271 272 274 276 278 279 278 279 278 278 279 277
238 236 234 233 234 236 237 240 242 242 243 245 249 251 254 252 251 252 254 252 256 261 264 264 263 264 266 269 270 270 270 270 271 273 275 278 280 280 282 282 281 280 279 279
240 236 234 235 237 238 235 237 240 238 240 245 248 247 250 252 251 252 256 255 255 260 262 264 265 266 267 270 271 273 274 274 275 277 279 283 284 284 283 285 284 283 281 281
239 238 237 237 239 240 237 237 238 240 241 245 243 245 247 248 248 251 256 255 257 258 261 264 265 268 269 270 272 275 277 279 280 281 282 284 286 286 287 287 285 282 282 282
250 245 244 242 240 239 241 241 241 241 241 240 239 239 240 245 249 253 255 254 254 256 260 263 266 268 271 274 275 276 278 280 281 282 283 285 286 286 286 286 286 284 283 283
250 252 251 246 244 242 245 243 238 238 239 237 234 232 234 240 248 249 254 255 257 260 263 266 269 271 273 275 277 277 279 281 282 283 283 284 285 286 286 286 286 284 283 283
Height
5874 5876 5877 5877 5877 5877 5877 5876 5875 5875 5874 5873 5872 5871 5869 5867 5865 5863 5859 5856 5853 5849 5846 5842 5839 5837 5839 5840 5841 5844 5847 5851 5856 5860 5864 5867 5870 5872 5874 5876 5878 5880 5882 5883
5871 5872 5873 5872 5873 5873 5873 5873 5873 5873 5872 5870 5868 5868 5867 5865 5863 5861 5858 5855 5851 5848 5845 5841 5838 5836 5836 5838 5840 5843 5845 5849 5853 5857 5861 5865 5867 5870 5872 5874 5876 5878 5880 5882
5866 5868 5867 5868 5869 5870 5870 5871 5870 5871 5870 5868 5866 5865 5864 5863 5861 5859 5856 5853 5850 5847 5843 5839 5837 5834 5835 5836 5839 5842 5844 5847 5851 5854 5858 5863 5865 5868 5870 5872 5875 5877 5879 5880
5861 5863 5863 5864 5865 5866 5867 5868 5868 5868 5867 5866 5865 5863 5862 5860 5859 5857 5854 5851 5848 5845 5842 5839 5836 5835 5835 5836 5838 5840 5843 5845 5849 5852 5856 5860 5863 5866 5868 5871 5873 5875 5877 5879
5858 5859 5859 5860 5861 5862 5863 5864 5865 5865 5864 5863 5862 5860 5860 5857 5856 5854 5852 5849 5846 5844 5841 5838 5836 5834 5834 5835 5837 5839 5841 5844 5848 5850 5854 5858 5861 5864 5867 5869 5872 5874 5876 5877
5853 5854 5855 5856 5857 5858 5859 5861 5861 5861 5861 5860 5859 5857 5855 5854 5853 5851 5849 5847 5844 5842 5840 5838 5836 5835 5835 5836 5836 5838 5840 5843 5846 5849 5852 5855 5858 5862 5865 5868 5870 5872 5874 5875
5848 5850 5851 5852 5853 5855 5856 5857 5858 5857 5857 5856 5855 5854 5853 5851 5850 5848 5847 5845 5842 5840 5839 5838 5836 5836 5836 5836 5837 5839 5840 5843 5846 5848 5851 5854 5858 5861 5863 5866 5869 5870 5872 5873
5843 5846 5847 5848 5849 5851 5852 5854 5854 5854 5853 5852 5851 5850 5850 5848 5847 5846 5844 5843 5841 5839 5839 5838 5837 5836 5836 5836 5837 5839 5841 5843 5845 5847 5850 5853 5856 5859 5862 5865 5866 5868 5869 5871
5838 5841 5843 5844 5845 5847 5848 5849 5850 5850 5849 5848 5847 5847 5847 5845 5844 5844 5842 5841 5840 5839 5838 5838 5837 5836 5836 5836 5837 5839 5841 5842 5844 5847 5849 5852 5854 5857 5860 5862 5864 5865 5866 5868
5833 5835 5838 5839 5841 5842 5843 5844 5845 5845 5845 5844 5844 5844 5844 5843 5842 5842 5840 5839 5838 5837 5837 5837 5837 5836 5836 5837 5837 5838 5840 5842 5843 5845 5848 5850 5853 5856 5858 5860 5861 5862 5863 5865
5826 5829 5832 5834 5835 5837 5838 5839 5839 5840 5841 5841 5840 5843 5841 5841 5840 5840 5839 5837 5837 5836 5836 5836 5836 5836 5836 5836 5837 5838 5839 5841 5842 5844 5846 5849 5851 5853 5855 5857 5858 5859 5860 5861
5819 5822 5824 5828 5831 5832 5832 5834 5835 5836 5836 5836 5836 5840 5838 5838 5837 5837 5836 5836 5835 5835 5835 5835 5835 5835 5835 5836 5836 5837 5839 5840 5841 5842 5844 5846 5848 5850 5852 5853 5854 5855 5856 5857
5813 5815 5818 5821 5826 5827 5827 5829 5830 5831 5832 5832 5832 5835 5833 5834 5833 5834 5834 5833 5832 5833 5833 5833 5833 5834 5834 5835 5835 5836 5837 5838 5839 5841 5842 5844 5845 5846 5848 5849 5850 5851 5852 5852
5806 5808 5811 5814 5818 5820 5822 5824 5825 5826 5827 5828 5829 5829 5829 5829 5830 5830 5830 5830 5830 5830 5831 5831 5832 5832 5832 5833 5834 5834 5835 5836 5837 5838 5839 5840 5841 5842 5843 5844 5845 5846 5847 5847
5799 5800 5803 5807 5811 5813 5815 5817 5819 5820 5821 5823 5824 5824 5825 5826 5826 5826 5826 5826 5827 5827 5829 5829 5830 5830 5830 5831 5832 5832 5833 5834 5835 5835 5836 5836 5837 5838 5839 5840 5840 5841 5841 5841
5790 5793 5796 5800 5804 5806 5808 5811 5813 5814 5815 5816 5818 5820 5820 5821 5821 5822 5822 5823 5823 5824 5825 5826 5826 5827 5827 5828 5829 5829 5830 5830 5831 5832 5833 5833 5833 5834 5834 5835 5834 5834 5834 5833
5782 5785 5789 5793 5796 5798 5802 5805 5806 5808 5809 5810 5813 5815 5815 5816 5817 5818 5819 5819 5820 5820 5821 5822 5822 5823 5824 5824 5825 5825 5826 5826 5827 5828 5828 5828 5829 5829 5829 5828 5828 5827 5826 5826
5774 5777 5780 5784 5788 5790 5797 5798 5800 5802 5803 5805 5807 5809 5809 5811 5811 5812 5813 5814 5815 5816 5817 5817 5817 5818 5819 5819 5820 5820 5821 5821 5822 5822 5822 5822 5822 5822 5821 5821 5820 5819 5818 5818
5766 5769 5772 5776 5779 5783 5788 5791 5793 5795 5797 5799 5800 5802 5804 5805 5806 5807 5807 5808 5810 5810 5811 5811 5812 5812 5812 5813 5814 5815 5815 5816 5816 5816 5815 5815 5814 5813 5812 5812 5811 5809 5809 5809
5758 5761 5764 5767 5771 5775 5781 5784 5786 5789 5790 5793 5794 5796 5798 5800 5801 5802 5803 5804 5804 5805 5805 5806 5806 5806 5807 5808 5808 5809 5808 5808 5808 5808 5808 5807 5806 5804 5803 5802 5801 5800 5800 5799
5752 5755 5757 5760 5763 5768 5772 5776 5779 5782 5785 5787 5788 5790 5791 5792 5795 5796 5797 5798 5798 5799 5800 5800 5801 5801 5801 5802 5802 5802 5802 5801 5801 5801 5800 5799 5798 5796 5795 5793 5792 5791 5790 5789
5747 5750 5752 5755 5758 5763 5766 5769 5772 5775 5777 5780 5782 5783 5785 5786 5787 5789 5791 5792 5792 5793 5794 5794 5795 5795 5795 5795 5795 5794 5794 5794 5794 5793 5792 5790 5789 5787 5785 5784 5782 5780 5779 5779
5742 5745 5747 5751 5754 5756 5759 5762 5765 5767 5770 5772 5774 5776 5778 5780 5781 5783 5784 5785 5786 5787 5787 5788 5788 5788 5788 5788 5788 5787 5786 5786 5785 5784 5783 5782 5780 5778 5776 5774 5772 5770 5769 5768
5739 5740 5743 5745 5747 5750 5753 5756 5759 5761 5763 5766 5768 5770 5772 5772 5775 5777 5778 5779 5780 5781 5781 5781 5781 5781 5781 5781 5780 5779 5778 5777 5776 5774 5773 5773 5771 5769 5767 5765 5762 5760 5759 5758
5735 5736 5738 5740 5742 5745 5748 5750 5752 5754 5756 5758 5760 5762 5764 5766 5769 5770 5771 5772 5772 5773 5774 5774 5774 5774 5773 5773 5772 5771 5770 5769 5768 5766 5765 5763 5761 5760 5758 5756 5754 5752 5750 5748
5731 5733 5735 5736 5739 5741 5742 5744 5746 5748 5749 5751 5753 5755 5756 5759 5762 5763 5764 5765 5766 5767 5767 5767 5767 5766 5766 5765 5764 5762 5762 5760 5759 5757 5755 5753 5752 5749 5748 5746 5743 5741 5739 5736